{"data":{"norad_id":64907,"epoch":"2026-05-24T23:55:01.087104Z","epoch_age_seconds":71972,"freshness":"FRESH","line1":"1 64907U 25157D   26144.99654036  .00032615  00000+0  97219-3 0  9992","line2":"2 64907  53.1606 350.0348 0001435 103.0031 257.1132 15.34401520 47820","mean_motion":15.3440152,"eccentricity":0.0001435,"inclination_deg":53.1606,"raan_deg":350.0348,"arg_perigee_deg":103.0031,"mean_anomaly_deg":257.1132,"bstar":0.00097219,"rev_number":4782,"period_min":93.847665114409,"perigee_km":461.71706252434,"apogee_km":463.68038237668,"semimajor_km":6840.8357224505,"source":"CELESTRAK","updated_at":"2026-05-25T13:38:20.619503Z"}}